Time,TemperatureF,DewpointF,PressureIn,WindDirection,WindDirectionDegrees,WindSpeedMPH,WindSpeedGustMPH,Humidity,HourlyPrecipIn,Conditions,Clouds,dailyrainin,SoftwareType,DateUTC
2013-03-14 00:04:00,25.3,16.5,29.93,South,169,1.0,5.0,69,0.00,,,0.00,Wunderground v.1.13,2013-03-14 04:04:00,
2013-03-14 00:09:00,25.1,16.4,29.93,NNW,339,1.0,11.0,69,0.00,,,0.00,Wunderground v.1.13,2013-03-14 04:09:00,
2013-03-14 00:14:00,25.1,16.4,29.93,East,89,2.0,2.0,69,0.00,,,0.00,Wunderground v.1.13,2013-03-14 04:14:00,
2013-03-14 00:19:00,25.0,16.9,29.93,SE,126,1.0,1.0,71,0.00,,,0.00,Wunderground v.1.13,2013-03-14 04:19:00,
2013-03-14 00:29:00,24.8,16.4,29.93,ENE,71,1.0,1.0,70,0.00,,,0.00,Wunderground v.1.13,2013-03-14 04:29:00,
2013-03-14 00:34:00,24.8,16.4,29.93,North,357,1.0,1.0,70,0.00,,,0.00,Wunderground v.1.13,2013-03-14 04:34:00,
2013-03-14 00:44:00,24.7,17.0,29.93,NE,42,1.0,8.0,72,0.00,,,0.00,Wunderground v.1.13,2013-03-14 04:44:00,
2013-03-14 00:49:00,24.5,16.4,29.92,NE,47,1.0,6.0,71,0.00,,,0.00,Wunderground v.1.13,2013-03-14 04:49:00,
2013-03-14 00:54:00,24.5,16.8,29.92,NW,320,2.0,2.0,72,0.00,,,0.00,Wunderground v.1.13,2013-03-14 04:54:00,
2013-03-14 00:59:00,24.4,16.3,29.92,WNW,299,1.0,1.0,71,0.00,,,0.00,Wunderground v.1.13,2013-03-14 04:59:00,
2013-03-14 01:04:00,24.4,16.0,29.93,North,0,1.0,1.0,70,0.00,,,0.00,Wunderground v.1.13,2013-03-14 05:04:00,
2013-03-14 01:09:00,24.2,16.5,29.93,NNW,344,1.0,5.0,72,0.00,,,0.00,Wunderground v.1.13,2013-03-14 05:09:00,
2013-03-14 01:14:00,24.2,16.8,29.93,NW,312,1.0,1.0,73,0.00,,,0.00,Wunderground v.1.13,2013-03-14 05:14:00,
2013-03-14 01:19:00,24.1,16.1,29.92,WSW,250,1.0,1.0,71,0.00,,,0.00,Wunderground v.1.13,2013-03-14 05:19:00,
2013-03-14 01:24:00,23.9,15.5,29.92,South,176,0.0,3.0,70,0.00,,,0.00,Wunderground v.1.13,2013-03-14 05:24:00,
2013-03-14 01:29:00,23.9,15.5,29.92,NW,311,1.0,1.0,70,0.00,,,0.00,Wunderground v.1.13,2013-03-14 05:29:00,
2013-03-14 01:39:00,23.8,16.1,29.92,North,11,1.0,1.0,72,0.00,,,0.00,Wunderground v.1.13,2013-03-14 05:39:00,
2013-03-14 01:44:00,23.6,15.9,29.92,SW,216,1.0,5.0,72,0.00,,,0.00,Wunderground v.1.13,2013-03-14 05:44:00,
2013-03-14 01:54:00,23.6,15.9,29.92,ENE,58,1.0,5.0,72,0.00,,,0.00,Wunderground v.1.13,2013-03-14 05:54:00,
2013-03-14 01:59:00,23.6,15.9,29.92,SSW,200,1.0,1.0,72,0.00,,,0.00,Wunderground v.1.13,2013-03-14 05:59:00,
2013-03-14 02:09:00,23.5,15.1,29.92,NW,304,1.0,7.0,70,0.00,,,0.00,Wunderground v.1.13,2013-03-14 06:09:00,
2013-03-14 02:14:00,23.5,15.8,29.92,NNE,31,1.0,6.0,72,0.00,,,0.00,Wunderground v.1.13,2013-03-14 06:14:00,
2013-03-14 02:19:00,23.3,15.6,29.92,NNW,336,1.0,1.0,72,0.00,,,0.00,Wunderground v.1.13,2013-03-14 06:19:00,
2013-03-14 02:24:00,23.3,15.3,29.92,NNW,333,1.0,1.0,71,0.00,,,0.00,Wunderground v.1.13,2013-03-14 06:24:00,
2013-03-14 02:29:00,23.3,15.3,29.92,NW,313,1.0,1.0,71,0.00,,,0.00,Wunderground v.1.13,2013-03-14 06:29:00,
2013-03-14 02:39:00,23.2,15.2,29.92,NW,306,1.0,1.0,71,0.00,,,0.00,Wunderground v.1.13,2013-03-14 06:39:00,
2013-03-14 02:44:00,23.2,14.9,29.92,WSW,257,1.0,1.0,70,0.00,,,0.00,Wunderground v.1.13,2013-03-14 06:44:00,
2013-03-14 02:49:00,23.2,15.5,29.93,NNW,335,1.0,1.0,72,0.00,,,0.00,Wunderground v.1.13,2013-03-14 06:49:00,
2013-03-14 02:54:00,23.2,15.2,29.93,SE,124,1.0,1.0,71,0.00,,,0.00,Wunderground v.1.13,2013-03-14 06:54:00,
2013-03-14 03:04:00,23.0,15.3,29.95,SE,133,1.0,3.0,72,0.00,,,0.00,Wunderground v.1.13,2013-03-14 07:04:00,
2013-03-14 03:13:00,23.0,15.6,29.95,North,0,1.0,3.0,73,0.00,,,0.00,Wunderground v.1.13,2013-03-14 07:13:00,
2013-03-14 03:19:00,23.0,15.3,29.95,North,349,1.0,7.0,72,0.00,,,0.00,Wunderground v.1.13,2013-03-14 07:19:00,
2013-03-14 03:24:00,22.9,15.2,29.95,North,0,1.0,1.0,72,0.00,,,0.00,Wunderground v.1.13,2013-03-14 07:24:00,
2013-03-14 03:29:00,22.9,15.5,29.95,NW,306,1.0,1.0,73,0.00,,,0.00,Wunderground v.1.13,2013-03-14 07:29:00,
2013-03-14 03:34:00,22.9,15.2,29.95,WNW,284,0.0,3.0,72,0.00,,,0.00,Wunderground v.1.13,2013-03-14 07:34:00,
2013-03-14 03:39:00,22.7,15.0,29.95,NNE,30,0.0,2.0,72,0.00,,,0.00,Wunderground v.1.13,2013-03-14 07:39:00,
2013-03-14 03:44:00,22.7,15.3,29.95,ENE,68,0.0,6.0,73,0.00,,,0.00,Wunderground v.1.13,2013-03-14 07:44:00,
2013-03-14 03:53:00,22.5,15.5,29.95,SSE,147,0.0,2.0,74,0.00,,,0.00,Wunderground v.1.13,2013-03-14 07:53:00,
2013-03-14 03:58:00,22.4,15.1,29.95,North,350,0.0,3.0,73,0.00,,,0.00,Wunderground v.1.13,2013-03-14 07:58:00,
2013-03-14 04:04:00,22.4,15.1,29.95,North,1,0.0,2.0,73,0.00,,,0.00,Wunderground v.1.13,2013-03-14 08:04:00,
2013-03-14 04:13:00,22.2,15.2,29.95,SW,223,0.0,3.0,74,0.00,,,0.00,Wunderground v.1.13,2013-03-14 08:13:00,
2013-03-14 04:23:00,22.2,14.5,29.95,ESE,114,1.0,1.0,72,0.00,,,0.00,Wunderground v.1.13,2013-03-14 08:23:00,
2013-03-14 04:28:00,22.2,14.9,29.95,NW,305,1.0,1.0,73,0.00,,,0.00,Wunderground v.1.13,2013-03-14 08:28:00,
2013-03-14 04:38:00,22.1,14.8,29.95,NW,308,0.0,1.0,73,0.00,,,0.00,Wunderground v.1.13,2013-03-14 08:38:00,
2013-03-14 04:43:00,21.9,14.3,29.95,WNW,287,0.0,3.0,72,0.00,,,0.00,Wunderground v.1.13,2013-03-14 08:43:00,
2013-03-14 04:48:00,21.8,14.5,29.97,East,95,1.0,1.0,73,0.00,,,0.00,Wunderground v.1.13,2013-03-14 08:48:00,
2013-03-14 04:53:00,21.8,14.8,29.97,North,352,0.0,3.0,74,0.00,,,0.00,Wunderground v.1.13,2013-03-14 08:53:00,
2013-03-14 05:03:00,21.6,14.3,29.97,East,85,0.0,2.0,73,0.00,,,0.00,Wunderground v.1.13,2013-03-14 09:03:00,
2013-03-14 05:08:00,21.6,14.3,29.97,North,4,1.0,1.0,73,0.00,,,0.00,Wunderground v.1.13,2013-03-14 09:08:00,
2013-03-14 05:13:00,21.4,14.4,29.97,East,88,1.0,1.0,74,0.00,,,0.00,Wunderground v.1.13,2013-03-14 09:13:00,
2013-03-14 05:23:00,21.4,14.1,29.98,ESE,107,0.0,5.0,73,0.00,,,0.00,Wunderground v.1.13,2013-03-14 09:23:00,
2013-03-14 05:28:00,21.3,13.7,29.98,South,182,0.0,3.0,72,0.00,,,0.00,Wunderground v.1.13,2013-03-14 09:28:00,
2013-03-14 05:33:00,21.3,14.3,29.98,WNW,291,0.0,3.0,74,0.00,,,0.00,Wunderground v.1.13,2013-03-14 09:33:00,
2013-03-14 05:43:00,21.1,13.5,29.98,NW,322,0.0,2.0,72,0.00,,,0.00,Wunderground v.1.13,2013-03-14 09:43:00,
2013-03-14 05:48:00,21.1,13.5,30.00,ENE,66,0.0,3.0,72,0.00,,,0.00,Wunderground v.1.13,2013-03-14 09:48:00,
2013-03-14 05:53:00,21.1,13.8,30.00,SW,215,0.0,1.0,73,0.00,,,0.00,Wunderground v.1.13,2013-03-14 09:53:00,
2013-03-14 06:03:00,21.1,14.1,30.00,SW,227,0.0,0.0,74,0.00,,,0.00,Wunderground v.1.13,2013-03-14 10:03:00,
2013-03-14 06:08:00,21.0,13.4,30.00,South,169,0.0,2.0,72,0.00,,,0.00,Wunderground v.1.13,2013-03-14 10:08:00,
2013-03-14 06:13:00,21.0,13.7,30.00,SE,126,0.0,2.0,73,0.00,,,0.00,Wunderground v.1.13,2013-03-14 10:13:00,
2013-03-14 06:18:00,21.0,13.7,30.02,SE,133,0.0,3.0,73,0.00,,,0.00,Wunderground v.1.13,2013-03-14 10:18:00,
2013-03-14 06:23:00,21.0,13.7,30.02,SE,134,0.0,2.0,73,0.00,,,0.00,Wunderground v.1.13,2013-03-14 10:23:00,
2013-03-14 06:28:00,21.0,14.3,30.02,SE,134,0.0,1.0,75,0.00,,,0.00,Wunderground v.1.13,2013-03-14 10:28:00,
2013-03-14 06:33:00,21.0,13.7,30.02,SE,138,0.0,2.0,73,0.00,,,0.00,Wunderground v.1.13,2013-03-14 10:33:00,
2013-03-14 06:38:00,21.0,14.0,30.02,ESE,112,0.0,2.0,74,0.00,,,0.00,Wunderground v.1.13,2013-03-14 10:38:00,
2013-03-14 06:48:00,21.0,14.3,30.04,East,99,0.0,3.0,75,0.00,,,0.00,Wunderground v.1.13,2013-03-14 10:48:00,
2013-03-14 06:53:00,21.0,13.7,30.04,SE,136,0.0,2.0,73,0.00,,,0.00,Wunderground v.1.13,2013-03-14 10:53:00,
2013-03-14 06:58:00,21.0,14.0,30.04,SE,138,0.0,2.0,74,0.00,,,0.00,Wunderground v.1.13,2013-03-14 10:58:00,
2013-03-14 07:08:00,20.8,13.8,30.04,South,179,0.0,3.0,74,0.00,,,0.00,Wunderground v.1.13,2013-03-14 11:08:00,
2013-03-14 07:13:00,20.8,13.8,30.04,NNW,333,1.0,1.0,74,0.00,,,0.00,Wunderground v.1.13,2013-03-14 11:13:00,
2013-03-14 07:18:00,20.8,13.8,30.05,ENE,65,1.0,2.0,74,0.00,,,0.00,Wunderground v.1.13,2013-03-14 11:18:00,
2013-03-14 07:28:00,20.8,13.8,30.05,NNW,344,0.0,1.0,74,0.00,,,0.00,Wunderground v.1.13,2013-03-14 11:28:00,
2013-03-14 07:33:00,20.8,13.8,30.06,NNW,344,0.0,3.0,74,0.00,,,0.00,Wunderground v.1.13,2013-03-14 11:33:00,
2013-03-14 07:38:00,20.8,13.5,30.06,NNW,344,0.0,1.0,73,0.00,,,0.00,Wunderground v.1.13,2013-03-14 11:38:00,
2013-03-14 07:43:00,20.8,13.8,30.06,South,179,0.0,1.0,74,0.00,,,0.00,Wunderground v.1.13,2013-03-14 11:43:00,
2013-03-14 07:48:00,20.6,13.6,30.07,ENE,61,0.0,3.0,74,0.00,,,0.00,Wunderground v.1.13,2013-03-14 11:48:00,
2013-03-14 07:53:00,20.6,13.6,30.07,ESE,119,0.0,1.0,74,0.00,,,0.00,Wunderground v.1.13,2013-03-14 11:53:00,
2013-03-14 08:03:00,20.6,13.6,30.07,ENE,78,0.0,1.0,74,0.00,,,0.00,Wunderground v.1.13,2013-03-14 12:03:00,
2013-03-14 08:08:00,20.6,13.3,30.07,ENE,78,0.0,1.0,73,0.00,,,0.00,Wunderground v.1.13,2013-03-14 12:08:00,
2013-03-14 08:13:00,20.8,13.5,30.07,SE,145,0.0,2.0,73,0.00,,,0.00,Wunderground v.1.13,2013-03-14 12:13:00,
2013-03-14 08:23:00,21.0,13.1,30.08,SSW,195,0.0,3.0,71,0.00,,,0.00,Wunderground v.1.13,2013-03-14 12:23:00,
2013-03-14 08:28:00,21.1,13.2,30.08,SSW,195,0.0,2.0,71,0.00,,,0.00,Wunderground v.1.13,2013-03-14 12:28:00,
2013-03-14 08:38:00,21.3,13.0,30.07,SSW,195,0.0,2.0,70,0.00,,,0.00,Wunderground v.1.13,2013-03-14 12:38:00,
2013-03-14 08:43:00,21.4,13.5,30.07,East,92,0.0,2.0,71,0.00,,,0.00,Wunderground v.1.13,2013-03-14 12:43:00,
2013-03-14 08:48:00,21.8,13.2,30.07,East,95,0.0,2.0,69,0.00,,,0.00,Wunderground v.1.13,2013-03-14 12:48:00,
2013-03-14 08:53:00,21.9,14.6,30.07,East,95,0.0,0.0,73,0.00,,,0.00,Wunderground v.1.13,2013-03-14 12:53:00,
2013-03-14 09:03:00,22.7,13.7,30.08,ESE,120,0.0,0.0,68,0.00,,,0.00,Wunderground v.1.13,2013-03-14 13:03:00,
2013-03-14 09:08:00,23.2,13.5,30.08,SE,131,0.0,0.0,66,0.00,,,0.00,Wunderground v.1.13,2013-03-14 13:08:00,
2013-03-14 09:13:00,23.8,13.7,30.08,South,191,0.0,1.0,65,0.00,,,0.00,Wunderground v.1.13,2013-03-14 13:13:00,
2013-03-14 09:23:00,24.5,12.6,30.08,WNW,288,0.0,2.0,60,0.00,,,0.00,Wunderground v.1.13,2013-03-14 13:23:00,
2013-03-14 09:28:00,25.0,13.4,30.08,WNW,288,0.0,0.0,61,0.00,,,0.00,Wunderground v.1.13,2013-03-14 13:28:00,
2013-03-14 09:33:00,25.4,14.2,30.08,WNW,288,0.0,0.0,62,0.00,,,0.00,Wunderground v.1.13,2013-03-14 13:33:00,
2013-03-14 09:43:00,26.4,12.8,30.08,WNW,288,0.0,1.0,56,0.00,,,0.00,Wunderground v.1.13,2013-03-14 13:43:00,
2013-03-14 09:53:00,27.9,12.5,30.07,WNW,288,0.0,0.0,52,0.00,,,0.00,Wunderground v.1.13,2013-03-14 13:53:00,
2013-03-14 10:03:00,28.8,13.4,30.07,North,354,0.0,2.0,52,0.00,,,0.00,Wunderground v.1.13,2013-03-14 14:03:00,
2013-03-14 10:08:00,29.1,12.8,30.07,SE,134,0.0,2.0,50,0.00,,,0.00,Wunderground v.1.13,2013-03-14 14:08:00,
2013-03-14 10:13:00,29.4,13.5,30.07,SE,134,0.0,1.0,51,0.00,,,0.00,Wunderground v.1.13,2013-03-14 14:13:00,
2013-03-14 10:18:00,30.0,13.6,30.07,SE,134,0.0,0.0,50,0.00,,,0.00,Wunderground v.1.13,2013-03-14 14:18:00,
2013-03-14 10:23:00,30.4,14.0,30.07,SE,134,0.0,1.0,50,0.00,,,0.00,Wunderground v.1.13,2013-03-14 14:23:00,
2013-03-14 10:33:00,30.9,12.5,30.07,ESE,104,0.0,1.0,46,0.00,,,0.00,Wunderground v.1.13,2013-03-14 14:33:00,
2013-03-14 10:43:00,31.9,15.8,30.07,WSW,253,0.0,2.0,51,0.00,,,0.00,Wunderground v.1.13,2013-03-14 14:43:00,
2013-03-14 10:48:00,32.7,16.5,30.06,WSW,253,0.0,1.0,51,0.00,,,0.00,Wunderground v.1.13,2013-03-14 14:48:00,
2013-03-14 10:53:00,33.4,16.7,30.06,SSW,213,0.0,1.0,50,0.00,,,0.00,Wunderground v.1.13,2013-03-14 14:53:00,
2013-03-14 11:03:00,34.9,18.1,30.06,SSE,148,0.0,1.0,50,0.00,,,0.00,Wunderground v.1.13,2013-03-14 15:03:00,
2013-03-14 11:08:00,35.8,18.0,30.06,ENE,78,0.0,1.0,48,0.00,,,0.00,Wunderground v.1.13,2013-03-14 15:08:00,
2013-03-14 11:13:00,36.0,17.2,30.06,SE,126,0.0,2.0,46,0.00,,,0.00,Wunderground v.1.13,2013-03-14 15:13:00,
2013-03-14 11:18:00,36.2,18.4,30.06,SW,233,0.0,2.0,48,0.00,,,0.00,Wunderground v.1.13,2013-03-14 15:18:00,
2013-03-14 11:23:00,36.5,18.2,30.06,South,171,0.0,0.0,47,0.00,,,0.00,Wunderground v.1.13,2013-03-14 15:23:00,
2013-03-14 11:28:00,36.8,17.9,30.06,East,96,0.0,2.0,46,0.00,,,0.00,Wunderground v.1.13,2013-03-14 15:28:00,
2013-03-14 11:33:00,36.8,17.9,30.06,SW,224,0.0,2.0,46,0.00,,,0.00,Wunderground v.1.13,2013-03-14 15:33:00,
2013-03-14 11:38:00,36.8,18.9,30.06,NW,318,0.0,2.0,48,0.00,,,0.00,Wunderground v.1.13,2013-03-14 15:38:00,
2013-03-14 11:43:00,36.6,18.2,30.06,South,182,0.0,2.0,47,0.00,,,0.00,Wunderground v.1.13,2013-03-14 15:43:00,
2013-03-14 11:53:00,37.0,20.1,30.06,SSE,158,0.0,3.0,50,0.00,,,0.00,Wunderground v.1.13,2013-03-14 15:53:00,
2013-03-14 11:58:00,37.8,19.3,30.06,ESE,121,0.0,1.0,47,0.00,,,0.00,Wunderground v.1.13,2013-03-14 15:58:00,
2013-03-14 12:08:00,38.6,20.1,30.06,WSW,248,0.0,2.0,47,0.00,,,0.00,Wunderground v.1.13,2013-03-14 16:08:00,
2013-03-14 12:13:00,38.9,20.4,30.06,South,185,0.0,2.0,47,0.00,,,0.00,Wunderground v.1.13,2013-03-14 16:13:00,
2013-03-14 12:18:00,39.1,20.0,30.05,WSW,257,0.0,3.0,46,0.00,,,0.00,Wunderground v.1.13,2013-03-14 16:18:00,
2013-03-14 12:23:00,39.5,19.9,30.05,West,261,0.0,1.0,45,0.00,,,0.00,Wunderground v.1.13,2013-03-14 16:23:00,
2013-03-14 12:28:00,39.8,19.1,30.05,West,260,0.0,3.0,43,0.00,,,0.00,Wunderground v.1.13,2013-03-14 16:28:00,
2013-03-14 12:33:00,39.6,19.5,30.05,SSE,155,1.0,1.0,44,0.00,,,0.00,Wunderground v.1.13,2013-03-14 16:33:00,
2013-03-14 12:43:00,39.8,20.2,30.05,South,189,0.0,1.0,45,0.00,,,0.00,Wunderground v.1.13,2013-03-14 16:43:00,
2013-03-14 12:48:00,40.1,19.9,30.04,WSW,253,0.0,3.0,44,0.00,,,0.00,Wunderground v.1.13,2013-03-14 16:48:00,
2013-03-14 12:58:00,40.5,21.3,30.04,West,268,1.0,2.0,46,0.00,,,0.00,Wunderground v.1.13,2013-03-14 16:58:00,
2013-03-14 13:03:00,40.8,20.0,30.04,SE,128,1.0,1.0,43,0.00,,,0.00,Wunderground v.1.13,2013-03-14 17:03:00,
2013-03-14 13:13:00,41.3,21.0,30.04,NNW,346,0.0,5.0,44,0.00,,,0.00,Wunderground v.1.13,2013-03-14 17:13:00,
2013-03-14 13:18:00,41.8,22.5,30.04,WNW,299,0.0,1.0,46,0.00,,,0.00,Wunderground v.1.13,2013-03-14 17:18:00,
2013-03-14 13:23:00,42.2,21.3,30.04,SSE,162,0.0,1.0,43,0.00,,,0.00,Wunderground v.1.13,2013-03-14 17:23:00,
2013-03-14 13:28:00,42.5,20.4,30.04,SE,140,0.0,2.0,41,0.00,,,0.00,Wunderground v.1.13,2013-03-14 17:28:00,
2013-03-14 13:38:00,42.5,20.4,30.03,SSE,154,0.0,5.0,41,0.00,,,0.00,Wunderground v.1.13,2013-03-14 17:38:00,
2013-03-14 13:43:00,42.6,20.5,30.03,SSW,210,0.0,2.0,41,0.00,,,0.00,Wunderground v.1.13,2013-03-14 17:43:00,
2013-03-14 13:48:00,42.8,20.1,30.02,WSW,237,0.0,2.0,40,0.00,,,0.00,Wunderground v.1.13,2013-03-14 17:48:00,
2013-03-14 13:53:00,42.8,21.3,30.02,SE,131,0.0,2.0,42,0.00,,,0.00,Wunderground v.1.13,2013-03-14 17:53:00,
2013-03-14 14:03:00,42.9,22.5,30.02,NW,316,0.0,3.0,44,0.00,,,0.00,Wunderground v.1.13,2013-03-14 18:03:00,
2013-03-14 14:08:00,43.6,19.6,30.02,NNW,332,1.0,1.0,38,0.00,,,0.00,Wunderground v.1.13,2013-03-14 18:08:00,
2013-03-14 14:18:00,43.9,15.2,30.02,North,0,1.0,1.0,31,0.00,,,0.00,Wunderground v.1.13,2013-03-14 18:18:00,
2013-03-14 14:23:00,43.8,11.9,30.02,SW,229,1.0,5.0,27,0.00,,,0.00,Wunderground v.1.13,2013-03-14 18:23:00,
2013-03-14 14:28:00,44.2,10.5,30.02,WSW,256,1.0,1.0,25,0.00,,,0.00,Wunderground v.1.13,2013-03-14 18:28:00,
2013-03-14 14:33:00,44.6,14.3,30.01,ESE,103,1.0,1.0,29,0.00,,,0.00,Wunderground v.1.13,2013-03-14 18:33:00,
2013-03-14 14:43:00,44.8,13.6,30.01,NNE,13,1.0,2.0,28,0.00,,,0.00,Wunderground v.1.13,2013-03-14 18:43:00,
2013-03-14 14:48:00,44.9,12.0,30.00,North,0,1.0,1.0,26,0.00,,,0.00,Wunderground v.1.13,2013-03-14 18:48:00,
2013-03-14 14:53:00,45.2,10.5,30.00,SSE,152,1.0,1.0,24,0.00,,,0.00,Wunderground v.1.13,2013-03-14 18:53:00,
2013-03-14 15:03:00,45.8,11.0,29.99,NW,308,0.0,3.0,24,0.00,,,0.00,Wunderground v.1.13,2013-03-14 19:03:00,
2013-03-14 15:13:00,45.5,12.5,29.99,WNW,292,0.0,2.0,26,0.00,,,0.00,Wunderground v.1.13,2013-03-14 19:13:00,
2013-03-14 15:18:00,45.7,10.9,29.99,SSE,165,0.0,2.0,24,0.00,,,0.00,Wunderground v.1.13,2013-03-14 19:18:00,
2013-03-14 15:23:00,45.8,11.0,29.99,SSE,168,0.0,2.0,24,0.00,,,0.00,Wunderground v.1.13,2013-03-14 19:23:00,
2013-03-14 15:28:00,45.8,14.5,29.99,NE,47,0.0,3.0,28,0.00,,,0.00,Wunderground v.1.13,2013-03-14 19:28:00,
2013-03-14 15:33:00,45.7,11.8,29.98,NNW,330,0.0,4.0,25,0.00,,,0.00,Wunderground v.1.13,2013-03-14 19:33:00,
2013-03-14 15:43:00,45.2,13.1,29.98,North,349,0.0,1.0,27,0.00,,,0.00,Wunderground v.1.13,2013-03-14 19:43:00,
2013-03-14 15:48:00,45.1,13.9,29.98,North,350,0.0,1.0,28,0.00,,,0.00,Wunderground v.1.13,2013-03-14 19:48:00,
2013-03-14 15:53:00,44.9,12.9,29.98,NE,55,0.0,1.0,27,0.00,,,0.00,Wunderground v.1.13,2013-03-14 19:53:00,
2013-03-14 15:58:00,44.9,12.0,29.98,ENE,64,0.0,0.0,26,0.00,,,0.00,Wunderground v.1.13,2013-03-14 19:58:00,
2013-03-14 16:03:00,44.8,13.6,29.98,NNW,339,0.0,2.0,28,0.00,,,0.00,Wunderground v.1.13,2013-03-14 20:03:00,
2013-03-14 16:08:00,44.6,14.3,29.98,NE,34,0.0,3.0,29,0.00,,,0.00,Wunderground v.1.13,2013-03-14 20:08:00,
2013-03-14 16:18:00,44.6,14.3,29.98,East,80,0.0,2.0,29,0.00,,,0.00,Wunderground v.1.13,2013-03-14 20:18:00,
2013-03-14 16:23:00,44.9,13.7,29.98,East,80,0.0,2.0,28,0.00,,,0.00,Wunderground v.1.13,2013-03-14 20:23:00,
2013-03-14 16:28:00,45.2,15.6,29.98,NNE,32,0.0,2.0,30,0.00,,,0.00,Wunderground v.1.13,2013-03-14 20:28:00,
2013-03-14 16:33:00,45.2,17.8,29.98,NNE,32,0.0,1.0,33,0.00,,,0.00,Wunderground v.1.13,2013-03-14 20:33:00,
2013-03-14 16:38:00,45.2,14.8,29.98,NNW,342,0.0,1.0,29,0.00,,,0.00,Wunderground v.1.13,2013-03-14 20:38:00,
2013-03-14 16:48:00,45.1,13.9,29.97,South,186,0.0,1.0,28,0.00,,,0.00,Wunderground v.1.13,2013-03-14 20:48:00,
2013-03-14 16:53:00,45.2,17.8,29.97,ENE,64,0.0,2.0,33,0.00,,,0.00,Wunderground v.1.13,2013-03-14 20:53:00,
2013-03-14 17:03:00,45.2,14.8,29.97,SSE,151,0.0,3.0,29,0.00,,,0.00,Wunderground v.1.13,2013-03-14 21:03:00,
2013-03-14 17:08:00,45.4,17.2,29.97,NNW,344,0.0,5.0,32,0.00,,,0.00,Wunderground v.1.13,2013-03-14 21:08:00,
2013-03-14 17:13:00,45.4,14.1,29.97,SSE,164,0.0,3.0,28,0.00,,,0.00,Wunderground v.1.13,2013-03-14 21:13:00,
2013-03-14 17:18:00,45.4,17.2,29.97,North,0,0.0,2.0,32,0.00,,,0.00,Wunderground v.1.13,2013-03-14 21:18:00,
2013-03-14 17:28:00,44.5,14.9,29.97,North,0,0.0,1.0,30,0.00,,,0.00,Wunderground v.1.13,2013-03-14 21:28:00,
2013-03-14 17:38:00,44.8,13.6,29.97,SE,145,0.0,2.0,28,0.00,,,0.00,Wunderground v.1.13,2013-03-14 21:38:00,
2013-03-14 17:43:00,45.1,16.2,29.97,NNE,20,0.0,3.0,31,0.00,,,0.00,Wunderground v.1.13,2013-03-14 21:43:00,
2013-03-14 17:48:00,44.9,14.5,29.96,SSW,195,0.0,3.0,29,0.00,,,0.00,Wunderground v.1.13,2013-03-14 21:48:00,
2013-03-14 17:58:00,44.3,12.4,29.96,North,359,1.0,1.0,27,0.00,,,0.00,Wunderground v.1.13,2013-03-14 21:58:00,
2013-03-14 18:03:00,44.2,12.3,29.96,NE,41,0.0,3.0,27,0.00,,,0.00,Wunderground v.1.13,2013-03-14 22:03:00,
2013-03-14 18:13:00,44.2,11.4,29.96,East,89,1.0,1.0,26,0.00,,,0.00,Wunderground v.1.13,2013-03-14 22:13:00,
2013-03-14 18:18:00,44.1,11.3,29.97,SSE,155,1.0,1.0,26,0.00,,,0.00,Wunderground v.1.13,2013-03-14 22:18:00,
2013-03-14 18:23:00,44.1,11.3,29.97,SSW,200,0.0,5.0,26,0.00,,,0.00,Wunderground v.1.13,2013-03-14 22:23:00,
2013-03-14 18:28:00,43.9,12.0,29.97,SSE,164,0.0,2.0,27,0.00,,,0.00,Wunderground v.1.13,2013-03-14 22:28:00,
2013-03-14 18:33:00,43.6,12.6,29.96,SSE,165,0.0,1.0,28,0.00,,,0.00,Wunderground v.1.13,2013-03-14 22:33:00,
2013-03-14 18:38:00,43.5,10.8,29.96,WSW,248,0.0,0.0,26,0.00,,,0.00,Wunderground v.1.13,2013-03-14 22:38:00,
2013-03-14 18:43:00,43.2,13.8,29.96,East,80,0.0,3.0,30,0.00,,,0.00,Wunderground v.1.13,2013-03-14 22:43:00,
2013-03-14 18:48:00,42.8,11.9,29.98,SE,136,0.0,2.0,28,0.00,,,0.00,Wunderground v.1.13,2013-03-14 22:48:00,
2013-03-14 18:53:00,42.5,10.8,29.98,SE,136,0.0,1.0,27,0.00,,,0.00,Wunderground v.1.13,2013-03-14 22:53:00,
2013-03-14 19:03:00,41.9,10.3,29.98,NNW,342,0.0,1.0,27,0.00,,,0.00,Wunderground v.1.13,2013-03-14 23:03:00,
2013-03-14 19:13:00,41.2,9.7,29.98,North,350,0.0,0.0,27,0.00,,,0.00,Wunderground v.1.13,2013-03-14 23:13:00,
2013-03-14 19:23:00,40.8,10.2,29.98,North,350,0.0,0.0,28,0.00,,,0.00,Wunderground v.1.13,2013-03-14 23:23:00,
2013-03-14 19:28:00,40.5,9.1,29.98,North,350,0.0,0.0,27,0.00,,,0.00,Wunderground v.1.13,2013-03-14 23:28:00,
2013-03-14 19:33:00,40.2,17.2,29.98,North,350,0.0,0.0,39,0.00,,,0.00,Wunderground v.1.13,2013-03-14 23:33:00,
2013-03-14 19:43:00,39.5,18.3,29.98,North,350,0.0,0.0,42,0.00,,,0.00,Wunderground v.1.13,2013-03-14 23:43:00,
2013-03-14 19:48:00,38.9,19.9,29.98,North,350,0.0,0.0,46,0.00,,,0.00,Wunderground v.1.13,2013-03-14 23:48:00,
2013-03-14 19:53:00,38.3,17.2,29.98,North,350,0.0,0.0,42,0.00,,,0.00,Wunderground v.1.13,2013-03-14 23:53:00,
2013-03-14 20:03:00,37.6,9.6,30.00,North,350,0.0,0.0,31,0.00,,,0.00,Wunderground v.1.13,2013-03-15 00:03:00,
2013-03-14 20:13:00,37.2,9.3,30.00,NW,304,0.0,1.0,31,0.00,,,0.00,Wunderground v.1.13,2013-03-15 00:13:00,
2013-03-14 20:18:00,37.0,11.2,30.01,NW,304,0.0,1.0,34,0.00,,,0.00,Wunderground v.1.13,2013-03-15 00:18:00,
2013-03-14 20:28:00,36.8,10.3,30.01,NNW,344,0.0,3.0,33,0.00,,,0.00,Wunderground v.1.13,2013-03-15 00:28:00,
2013-03-14 20:33:00,36.6,9.5,30.00,SSW,199,0.0,1.0,32,0.00,,,0.00,Wunderground v.1.13,2013-03-15 00:33:00,
2013-03-14 20:38:00,36.6,9.5,30.00,NW,311,0.0,1.0,32,0.00,,,0.00,Wunderground v.1.13,2013-03-15 00:38:00,
2013-03-14 20:43:00,36.5,9.4,30.00,South,184,0.0,1.0,32,0.00,,,0.00,Wunderground v.1.13,2013-03-15 00:43:00,
2013-03-14 20:48:00,36.2,9.8,29.99,South,184,0.0,1.0,33,0.00,,,0.00,Wunderground v.1.13,2013-03-15 00:48:00,
2013-03-14 20:53:00,36.0,8.9,29.99,South,184,0.0,1.0,32,0.00,,,0.00,Wunderground v.1.13,2013-03-15 00:53:00,
2013-03-14 21:03:00,35.8,8.1,29.98,NNW,329,0.0,1.0,31,0.00,,,0.00,Wunderground v.1.13,2013-03-15 01:03:00,
2013-03-14 21:08:00,35.6,9.3,29.98,NNW,329,0.0,0.0,33,0.00,,,0.00,Wunderground v.1.13,2013-03-15 01:08:00,
2013-03-14 21:13:00,35.5,9.9,29.98,NNW,329,0.0,0.0,34,0.00,,,0.00,Wunderground v.1.13,2013-03-15 01:13:00,
2013-03-14 21:18:00,35.2,8.9,29.99,NNW,342,0.0,0.0,33,0.00,,,0.00,Wunderground v.1.13,2013-03-15 01:18:00,
2013-03-14 21:23:00,35.0,8.1,29.99,NNW,342,0.0,1.0,32,0.00,,,0.00,Wunderground v.1.13,2013-03-15 01:23:00,
2013-03-14 21:28:00,34.9,10.0,29.99,NNW,342,0.0,0.0,35,0.00,,,0.00,Wunderground v.1.13,2013-03-15 01:28:00,
2013-03-14 21:33:00,34.7,10.4,29.99,NNW,342,0.0,0.0,36,0.00,,,0.00,Wunderground v.1.13,2013-03-15 01:33:00,
2013-03-14 21:38:00,34.4,8.9,29.99,NNW,342,0.0,0.0,34,0.00,,,0.00,Wunderground v.1.13,2013-03-15 01:38:00,
2013-03-14 21:48:00,34.1,8.6,29.99,NNW,346,0.0,1.0,34,0.00,,,0.00,Wunderground v.1.13,2013-03-15 01:48:00,
2013-03-14 21:53:00,34.0,9.2,29.99,NNW,346,0.0,1.0,35,0.00,,,0.00,Wunderground v.1.13,2013-03-15 01:53:00,
2013-03-14 21:58:00,33.8,9.0,29.99,North,0,0.0,1.0,35,0.00,,,0.00,Wunderground v.1.13,2013-03-15 01:58:00,
2013-03-14 22:03:00,33.7,8.3,29.98,NNE,17,0.0,1.0,34,0.00,,,0.00,Wunderground v.1.13,2013-03-15 02:03:00,
2013-03-14 22:08:00,33.5,9.4,29.98,NNE,28,0.0,1.0,36,0.00,,,0.00,Wunderground v.1.13,2013-03-15 02:08:00,
2013-03-14 22:13:00,33.4,8.0,29.98,SSE,168,0.0,1.0,34,0.00,,,0.00,Wunderground v.1.13,2013-03-15 02:13:00,
2013-03-14 22:23:00,33.5,8.7,30.00,NW,325,1.0,1.0,35,0.00,,,0.00,Wunderground v.1.13,2013-03-15 02:23:00,
2013-03-14 22:28:00,33.4,8.6,30.00,SE,138,0.0,2.0,35,0.00,,,0.00,Wunderground v.1.13,2013-03-15 02:28:00,
2013-03-14 22:33:00,33.4,8.0,29.99,South,175,0.0,1.0,34,0.00,,,0.00,Wunderground v.1.13,2013-03-15 02:33:00,
2013-03-14 22:38:00,33.4,10.5,29.99,North,10,0.0,3.0,38,0.00,,,0.00,Wunderground v.1.13,2013-03-15 02:38:00,
2013-03-14 22:43:00,33.2,8.5,29.99,East,95,0.0,3.0,35,0.00,,,0.00,Wunderground v.1.13,2013-03-15 02:43:00,
2013-03-14 22:48:00,33.1,7.7,29.97,WSW,247,0.0,1.0,34,0.00,,,0.00,Wunderground v.1.13,2013-03-15 02:48:00,
2013-03-14 22:53:00,33.1,9.0,29.97,East,92,0.0,2.0,36,0.00,,,0.00,Wunderground v.1.13,2013-03-15 02:53:00,
2013-03-14 23:03:00,32.9,10.0,29.96,East,92,0.0,0.0,38,0.00,,,0.00,Wunderground v.1.13,2013-03-15 03:03:00,
2013-03-14 23:08:00,32.8,9.9,29.96,SSW,208,0.0,0.0,38,0.00,,,0.00,Wunderground v.1.13,2013-03-15 03:08:00,
2013-03-14 23:13:00,32.8,10.5,29.96,South,186,0.0,1.0,39,0.00,,,0.00,Wunderground v.1.13,2013-03-15 03:13:00,
2013-03-14 23:23:00,32.9,11.7,29.95,SSE,162,0.0,2.0,41,0.00,,,0.00,Wunderground v.1.13,2013-03-15 03:23:00,
2013-03-14 23:28:00,32.9,12.8,29.95,WSW,247,1.0,1.0,43,0.00,,,0.00,Wunderground v.1.13,2013-03-15 03:28:00,
2013-03-14 23:33:00,32.9,13.3,29.95,SSE,154,1.0,1.0,44,0.00,,,0.00,Wunderground v.1.13,2013-03-15 03:33:00,
2013-03-14 23:38:00,32.9,13.9,29.95,SSE,164,0.0,5.0,45,0.00,,,0.00,Wunderground v.1.13,2013-03-15 03:38:00,
2013-03-14 23:48:00,32.9,14.8,29.94,WSW,241,1.0,2.0,47,0.00,,,0.00,Wunderground v.1.13,2013-03-15 03:48:00,
2013-03-14 23:53:00,32.9,14.8,29.94,WSW,240,0.0,3.0,47,0.00,,,0.00,Wunderground v.1.13,2013-03-15 03:53:00,